Weather Roundup
Issued by NWS

Home | Current Version | Previous Version | Graphics & Text | Print | Product List | Glossary Off
Versions: 1 2 3 4 5 6 7 8 9 10 11 12 13 14 15 16 17 18 19 20 21 22 23 24 25 26 27 28 29 30 31 32 33 34 35 36 37 38 39 40 41 42 43 44 45 46 47 48 49 50

000
NZUS93 KARX 012059
HRRWXR

CURRENT HOURLY OBSERVATIONS ACROSS
MUCH OF THE UPPER MISSISSIPPI VALLEY
NATIONAL WEATHER SERVICE LA CROSSE WI
400 PM CDT MON JUN 01 2015


...SOUTHEAST MINNESOTA...


CITY           SKY/WX    TMP DP  RH WIND       PRES   REMARKS
ROCHESTER      SUNNY     67  44  43 E12       30.19F
ROCHESTER/MAYO FAIR      65  37  35 E13       30.18F
WINONA         SUNNY     70  43  37 E12       30.19F
AUSTIN         SUNNY     66  39  37 SE6       30.17F
ALBERT LEA     SUNNY     70  34  26 S9        30.16F
DODGE CENTER   MOSUNNY   68  36  30 SE13G23   30.18F
PRESTON        SUNNY     65  39  38 SE8       30.20F
OWATONNA       SUNNY     70  34  26 SE10G16   30.16F
FARIBAULT      SUNNY     70  39  32 E8        30.17S
$$

...ELSEWHERE IN MINNESOTA...


CITY           SKY/WX    TMP DP  RH WIND       PRES   REMARKS
MINNEAPOLIS    PTSUNNY   68  36  30 SE14      30.17F
INTNL FALLS    SUNNY     71  35  26 S13G23    30.09F
DULUTH         SUNNY     59  38  45 E14       30.20F
RED WING       SUNNY     70  36  28 SE12      30.17F
REDWOOD FALLS  SUNNY     73  43  33 SE18      30.10F
MANKATO        MOSUNNY   70  43  37 S10G21    30.14F
WORTHINGTON    PTSUNNY   73  45  35 SE14G22   30.09F
FAIRMONT       SUNNY     72  39  30 S13       30.13S
$$

...SOUTHWEST WISCONSIN...


CITY           SKY/WX    TMP DP  RH WIND       PRES   REMARKS
LA CROSSE      SUNNY     71  39  31 SE10      30.19F
PRAIRIE DU CHI SUNNY     69  35  28 E5        30.19S
BOSCOBEL       SUNNY     71  38  29 VRB6      30.20F
LONE ROCK      NOT AVBL
PLATTEVILLE    SUNNY     67  41  38 E6G16     30.20S
FORT MC COY    SUNNY     69  31  24 SE9       30.22F
VIROQUA        FAIR      67  32  27 SE9       30.21F
WIS DELLS      SUNNY     65  37  34 E10       30.22F
$$

...ELSEWHERE IN WISCONSIN...


CITY           SKY/WX    TMP DP  RH WIND       PRES   REMARKS
MILWAUKEE      MOSUNNY   56  35  45 N14       30.25F
MADISON        MOSUNNY   66  32  28 NE15      30.21F
GREEN BAY      SUNNY     64  40  41 NE8       30.26F
EAU CLAIRE     SUNNY     69  40  34 SE13      30.19F
BLACK RVR FLS  FAIR      70  34  26 SE5       30.21S
MEDFORD        SUNNY     64  44  48 S8        30.24F
WAUSAU         SUNNY     65  36  34 E8        30.22F
WIS RAPIDS     SUNNY     67  28  23 SE10G17   30.24F
MARSHFIELD     SUNNY     66  38  35 E10       30.23F
RICE LAKE      SUNNY     67  37  32 SE10G17   30.22F
$$

...NORTHEAST IOWA...


CITY           SKY/WX    TMP DP  RH WIND       PRES   REMARKS
DECORAH        SUNNY     66  39  37 E8        30.19F
MASON CITY     SUNNY     69  35  28 SE9       30.17F
CHARLES CITY   SUNNY     70  41  35 S10G17    30.18F
OELWEIN        SUNNY     68  37  32 SE8G15    30.18F
$$

...ELSEWHERE IN IOWA...


CITY           SKY/WX    TMP DP  RH WIND       PRES   REMARKS
DES MOINES     PTSUNNY   71  42  35 CALM      30.14F
IOWA CITY      MOSUNNY   70  46  42 SE6       30.16F
FORT DODGE     SUNNY     72  46  40 S10G17    30.14F
$$

...NORTHERN ILLINOIS...


CITY           SKY/WX    TMP DP  RH WIND       PRES   REMARKS
CHICAGO-OHARE  MOSUNNY   58  39  49 NE15      30.21F
CHICAGO-MIDWAY MOSUNNY   61  44  53 NE14      30.21F
MOLINE         CLOUDY    70  49  47 E8        30.16F
ROCKFORD       MOSUNNY   67  44  43 E14       30.20F
PEORIA         CLOUDY    66  54  65 VRB7      30.18S
$$

NOTE: "FAIR" INDICATES FEW OR NO CLOUDS BELOW 12,000 FEET WITH NO
SIGNIFICANT WEATHER AND/OR OBSTRUCTIONS TO VISIBILITY. WIND
SPEEDS ARE IN MILES-PER-HOUR.



USA.gov is the U.S. government's official web portal to all federal, state and local government web resources and services.